Regional Weather Roundup
Issued by NWS Kansas City/Pleasant Hill, MO

Home | Current Version | Previous Version | Graphics & Text | Print | Product List | Glossary Off
Versions: 1 2 3 4 5 6 7 8 9 10 11 12 13 14 15 16 17 18 19 20 21 22 23 24 25 26 27 28 29 30 31 32 33 34 35 36 37 38 39 40 41 42 43 44 45 46 47 48 49 50

441
ASUS43 KEAX 261010
RWREAX

WEATHER ROUNDUP FOR EASTERN KANSAS AND NORTHWEST MISSOURI
NATIONAL WEATHER SERVICE KANSAS CITY/PLEASANT HILL MO
500 AM CDT SAT MAY 26 2018

KSZ040-057-103>105-MOZ028-029-037-043-261100-
...KANSAS CITY METROPOLITAN AREA...

CITY           SKY/WX    TMP DP  RH WIND       PRES   REMARKS
K.C. INTL      CLEAR     69  65  86 SW7       29.80R
K.C. DOWNTOWN  CLEAR     71  64  78 CALM      29.79R
LEES SUMMIT    CLEAR     70  67  90 SW9       29.81S
OLATHE - IXD   CLEAR     70  66  87 SW6       29.83R
OLATHE - OJC   CLEAR     67  66  97 SW3       29.82R
LAWRENCE       CLEAR     68  65  90 CALM      29.80R

$$

MOZ001>008-011>017-020>025-030>033-038>040-044>046-053-054-261100-
...NORTHERN AND CENTRAL MISSOURI...

CITY           SKY/WX    TMP DP  RH WIND       PRES   REMARKS
ST. JOSEPH     CLEAR     68  66  93 SE7       29.78R
MOSBY          SUNNY     66  64  94 CALM      29.80R
WARRENSBURG    CLEAR     70  64  83 S5        29.81S
WHITEMAN AFB   CLEAR     67  66  96 SW6       29.78R
CLINTON        CLEAR     68  66  94 SW3       29.83R
SEDALIA        CLEAR     71  67  87 SW8       29.83R
WARSAW         NOT AVBL
CHILLICOTHE      N/A     70  67  90 S6        29.79S
KIRKSVILLE     CLEAR     68  67  96 S6        29.80F

$$

MOZ041-047>049-056>058-063>065-088>090-097-261100-
...EASTERN AND SOUTHERN MISSOURI...

CITY           SKY/WX    TMP DP  RH WIND       PRES   REMARKS
ST. LOUIS INTL CLOUDY    70  68  93 CALM      29.82R
SPIRIT OF STL  CLOUDY    69  67  93 CALM      29.81R
COLUMBIA       PTCLDY    67  65  93 S3        29.82R
JEFFERSON CITY CLEAR     69  65  86 S3        29.82R
ROLLA          MOCLDY    64  62  93 SW6       29.84R
OSAGE BEACH    CLOUDY    64  63  96 CALM      29.84R
SPRINGFIELD    CLOUDY    64  63  96 S6        29.84S FOG
BRANSON        CLOUDY    63  63 100 CALM      29.87R
JOPLIN         CLEAR     66  65  96 SE5       29.85S
WEST PLAINS    CLOUDY    67  65  93 CALM      29.87R

$$

IAZ060-094-KSZ022-034>040-054-083-096-NEZ052-066-093-261100-
...KANSAS...SOUTHEAST NEBRASKA AND IOWA...

CITY           SKY/WX    TMP DP  RH WIND       PRES   REMARKS
TOPEKA         CLEAR     70  66  87 S5        29.80R
MANHATTAN      CLEAR     70  65  84 SW6       29.81R
EMPORIA        CLEAR     67  61  81 SW6       29.82S
CHANUTE        CLEAR     67  66  97 S6        29.83F
WICHITA        CLEAR     66  64  93 S5        29.83S
OMAHA          CLEAR     66  62  87 E3        29.75R
LINCOLN        CLEAR     68  62  81 S5        29.78R
FALLS CITY     CLEAR     72  64  76 SW5       29.77R
LAMONI         CLEAR     68  64  87 S10       29.76F
DES MOINES     PTCLDY    70  66  87 SE6       29.74S

$$





USA.gov is the U.S. government's official web portal to all federal, state and local government web resources and services.